Find Starlink 38325

NORAD ID: 100445 Int'l Des: 2026-193 Owner: SPXS Country: US Constellation: starlink operational

Current View

Loading 3D Globe...

About Starlink 38325

Starlink 38325 (NORAD 100445) is a starlink constellation satellite launched Aug 22, 2026 by SPXS of US. with a mass of 575.00 kg.

Upcoming Passes

Passes for default location (London). Set your location on the main map for personalized predictions.

Altitude History

Loading altitude history...

Two-Line Element Set

1 A0445U 26193N 26262.91045902 -.01101023 00000-0 -28264-1 0 9995
2 A0445 70.0005 75.9116 0003461 265.6353 94.4433 15.41795519 5661
Epoch: Sep 19, 2026 • Age: 16 hours

Current Status

Altitude 454.1 km
Apogee / Perigee N/A
Velocity 7.64 km/s
Sub-Earth Point 47.92°N, 106.51°W
Launch Date Aug 22, 2026
Age 29 days
Type internet

Technical Details

Classification Payload
Mass 575.00 kg
Dry Mass 530.00 kg
Length 0.30 m
Span 29.00 m
Shape ? Box + pan
Manufacturer SPXS
Bus Type Starlink V2MO
Phase Status In Orbit
Owner/State SPXS/US

Most Searched